Stündliche Wetter Abalos

Heute, 24 Februar, Mittwoch

Zeit Temperatur Niederschläge Wind Luftdruck Luftfeuchtigkeit
00:00 +7°C° 0 mm 2 m/S 725 mmHg 80%
01:00 +6°C° 0 mm 2 m/S 725 mmHg 81%
02:00 +6°C° 0 mm 2 m/S 725 mmHg 82%
03:00 +6°C° 0 mm 2 m/S 724 mmHg 83%
04:00 +6°C° 0 mm 2 m/S 724 mmHg 84%
05:00 +6°C° 0 mm 2 m/S 724 mmHg 85%
06:00 +6°C° 0 mm 2 m/S 724 mmHg 87%
07:00 +7°C° 0 mm 2 m/S 724 mmHg 84%
08:00 +8°C° 0 mm 2 m/S 724 mmHg 80%
09:00 +9°C° 0 mm 2 m/S 724 mmHg 77%
10:00 +11°C° 0 mm 3 m/S 724 mmHg 71%
11:00 +13°C° 0 mm 4 m/S 724 mmHg 65%
12:00 +15°C° 0 mm 4 m/S 724 mmHg 57%
13:00 +17°C° 0 mm 4 m/S 724 mmHg 54%
14:00 +17°C° 0 mm 5 m/S 723 mmHg 51%
15:00 +17°C° 0 mm 5 m/S 723 mmHg 48%
16:00 +17°C° 0 mm 4 m/S 722 mmHg 56%
17:00 +14°C° 0 mm 4 m/S 722 mmHg 65%
18:00 +12°C° 0 mm 3 m/S 722 mmHg 73%
19:00 +11°C° 0 mm 3 m/S 722 mmHg 77%
20:00 +10°C° 0 mm 3 m/S 722 mmHg 80%
21:00 +10°C° 0 mm 3 m/S 722 mmHg 84%
22:00 +9°C° 0 mm 3 m/S 722 mmHg 85%
23:00 +9°C° 0 mm 2 m/S 722 mmHg 85%

Morgen, 25 Februar, Donnerstag

Zeit Temperatur Niederschläge Wind Luftdruck Luftfeuchtigkeit
00:00 +8°C° 0 mm 2 m/S 722 mmHg 86%
01:00 +8°C° 0 mm 2 m/S 722 mmHg 87%
02:00 +7°C° 0 mm 2 m/S 722 mmHg 88%
03:00 +7°C° 0 mm 2 m/S 721 mmHg 89%
04:00 +6°C° 0 mm 2 m/S 722 mmHg 91%
05:00 +6°C° 0 mm 2 m/S 722 mmHg 92%
06:00 +6°C° 0 mm 2 m/S 722 mmHg 93%
07:00 +7°C° 0 mm 2 m/S 722 mmHg 91%
08:00 +8°C° 0 mm 2 m/S 722 mmHg 88%
09:00 +8°C° 0 mm 2 m/S 723 mmHg 85%
10:00 +9°C° 0 mm 2 m/S 723 mmHg 81%
11:00 +10°C° 0 mm 2 m/S 723 mmHg 77%
12:00 +11°C° 0 mm 3 m/S 723 mmHg 73%
13:00 +13°C° 0 mm 2 m/S 723 mmHg 71%
14:00 +13°C° 0 mm 2 m/S 723 mmHg 69%
15:00 +14°C° 0 mm 2 m/S 723 mmHg 67%
16:00 +13°C° 0 mm 2 m/S 723 mmHg 72%
17:00 +12°C° 0 mm 1 m/S 723 mmHg 77%
18:00 +11°C° 0 mm 1 m/S 723 mmHg 82%
19:00 +10°C° 0 mm 1 m/S 724 mmHg 85%
20:00 +10°C° 0 mm 1 m/S 724 mmHg 88%
21:00 +10°C° 0 mm 1 m/S 725 mmHg 91%
22:00 +9°C° 0 mm 1 m/S 725 mmHg 93%
23:00 +9°C° 0 mm 1 m/S 725 mmHg 94%

übermorgen, 26 Februar, Freitag

Zeit Temperatur Niederschläge Wind Luftdruck Luftfeuchtigkeit
00:00 +9°C° 0 mm 1 m/S 725 mmHg 95%
01:00 +8°C° 0 mm 1 m/S 725 mmHg 96%
02:00 +8°C° 0 mm 1 m/S 725 mmHg 96%
03:00 +8°C° 0 mm 1 m/S 725 mmHg 96%
04:00 +8°C° 0 mm 1 m/S 725 mmHg 96%
05:00 +8°C° 0 mm 1 m/S 725 mmHg 96%
06:00 +8°C° 0 mm 1 m/S 725 mmHg 95%
07:00 +9°C° 0 mm 1 m/S 725 mmHg 92%
08:00 +9°C° 0 mm 1 m/S 725 mmHg 90%
09:00 +10°C° 0 mm 1 m/S 725 mmHg 87%
10:00 +11°C° 0 mm 1 m/S 725 mmHg 83%
11:00 +11°C° 0 mm 1 m/S 725 mmHg 79%
12:00 +12°C° 0 mm 1 m/S 725 mmHg 75%
13:00 +12°C° 0 mm 2 m/S 725 mmHg 75%
14:00 +13°C° 0 mm 2 m/S 725 mmHg 75%
15:00 +13°C° 0 mm 2 m/S 725 mmHg 75%
16:00 +12°C° 0 mm 2 m/S 725 mmHg 79%
17:00 +10°C° 0 mm 2 m/S 724 mmHg 83%
18:00 +9°C° 0 mm 2 m/S 724 mmHg 88%
19:00 +9°C° 0 mm 2 m/S 725 mmHg 89%
20:00 +8°C° 0 mm 2 m/S 725 mmHg 90%
21:00 +8°C° 0 mm 2 m/S 725 mmHg 91%
22:00 +7°C° 0 mm 2 m/S 725 mmHg 91%
23:00 +7°C° 0 mm 2 m/S 725 mmHg 92%

27 Februar, Samstag

Zeit Temperatur Niederschläge Wind Luftdruck Luftfeuchtigkeit
00:00 +7°C° 0 mm 2 m/S 725 mmHg 92%
01:00 +6°C° 0 mm 2 m/S 725 mmHg 90%
02:00 +6°C° 0 mm 2 m/S 725 mmHg 89%
03:00 +5°C° 0 mm 2 m/S 725 mmHg 87%
04:00 +5°C° 0 mm 2 m/S 725 mmHg 86%
05:00 +5°C° 0 mm 2 m/S 725 mmHg 84%
06:00 +4°C° 0 mm 2 m/S 725 mmHg 83%
07:00 +5°C° 0 mm 2 m/S 725 mmHg 79%
08:00 +5°C° 0 mm 2 m/S 725 mmHg 75%
09:00 +6°C° 0 mm 2 m/S 725 mmHg 71%
10:00 +7°C° 0 mm 3 m/S 725 mmHg 66%
11:00 +8°C° 0 mm 3 m/S 725 mmHg 61%
12:00 +8°C° 0 mm 4 m/S 724 mmHg 56%
13:00 +8°C° 0 mm 4 m/S 724 mmHg 58%
14:00 +8°C° 0 mm 4 m/S 723 mmHg 60%
15:00 +8°C° 0 mm 4 m/S 723 mmHg 62%
16:00 +8°C° 0 mm 3 m/S 723 mmHg 69%
17:00 +7°C° 0 mm 3 m/S 722 mmHg 75%
18:00 +6°C° 0 mm 2 m/S 722 mmHg 81%
19:00 +6°C° 0 mm 2 m/S 722 mmHg 82%
20:00 +5°C° 0 mm 2 m/S 723 mmHg 83%
21:00 +5°C° 0 mm 2 m/S 723 mmHg 85%
22:00 +6°C° 0 mm 1 m/S 723 mmHg 86%
23:00 +6°C° 0 mm 1 m/S 723 mmHg 87%

28 Februar, Sonntag

Zeit Temperatur Niederschläge Wind Luftdruck Luftfeuchtigkeit
00:00 +6°C° 0 mm 1 m/S 722 mmHg 88%
01:00 +6°C° 0 mm 1 m/S 722 mmHg 88%
02:00 +6°C° 0 mm 1 m/S 722 mmHg 88%
03:00 +6°C° 0 mm 1 m/S 722 mmHg 88%
04:00 +6°C° 0 mm 1 m/S 721 mmHg 88%
05:00 +6°C° 0 mm 1 m/S 721 mmHg 88%
06:00 +5°C° 0 mm 0 m/S 721 mmHg 88%
07:00 +5°C° 0 mm 0 m/S 721 mmHg 84%
08:00 +6°C° 0 mm 0 m/S 721 mmHg 80%
09:00 +7°C° 0 mm 0 m/S 721 mmHg 76%
10:00 +9°C° 0 mm 1 m/S 721 mmHg 72%
11:00 +10°C° 0 mm 1 m/S 720 mmHg 67%
12:00 +12°C° 0 mm 2 m/S 720 mmHg 63%
13:00 +12°C° 0 mm 2 m/S 720 mmHg 63%
14:00 +12°C° 0 mm 3 m/S 719 mmHg 62%
15:00 +12°C° 0 mm 3 m/S 718 mmHg 62%
16:00 +11°C° 0 mm 3 m/S 718 mmHg 68%
17:00 +10°C° 0 mm 2 m/S 718 mmHg 73%
18:00 +8°C° 0 mm 2 m/S 718 mmHg 79%
19:00 +8°C° 0 mm 2 m/S 718 mmHg 81%
20:00 +7°C° 0 mm 2 m/S 718 mmHg 83%
21:00 +7°C° 0 mm 2 m/S 719 mmHg 85%
22:00 +6°C° 0 mm 2 m/S 719 mmHg 86%
23:00 +6°C° 0 mm 2 m/S 719 mmHg 88%

1 März, Montag

Zeit Temperatur Niederschläge Wind Luftdruck Luftfeuchtigkeit
00:00 +6°C° 0 mm 2 m/S 719 mmHg 89%
01:00 +6°C° 0 mm 2 m/S 718 mmHg 91%
02:00 +5°C° 0 mm 2 m/S 718 mmHg 92%
03:00 +5°C° 0 mm 2 m/S 718 mmHg 94%
04:00 +5°C° 0 mm 2 m/S 718 mmHg 94%
05:00 +5°C° 0 mm 2 m/S 718 mmHg 94%
06:00 +5°C° 0 mm 2 m/S 718 mmHg 94%
07:00 +5°C° 0 mm 3 m/S 719 mmHg 91%
08:00 +7°C° 0 mm 3 m/S 719 mmHg 87%
09:00 +8°C° 0 mm 3 m/S 719 mmHg 84%
10:00 +8°C° 0 mm 4 m/S 719 mmHg 77%
11:00 +11°C° 0 mm 4 m/S 719 mmHg 71%
12:00 +13°C° 0 mm 4 m/S 719 mmHg 64%
13:00 +13°C° 0 mm 4 m/S 719 mmHg 62%
14:00 +14°C° 0 mm 5 m/S 718 mmHg 59%
15:00 +14°C° 0 mm 5 m/S 718 mmHg 56%
16:00 +13°C° 0 mm 4 m/S 718 mmHg 61%
17:00 +12°C° 0 mm 4 m/S 718 mmHg 65%
18:00 +10°C° 0 mm 3 m/S 718 mmHg 70%
19:00 +10°C° 0 mm 3 m/S 719 mmHg 71%
20:00 +9°C° 0 mm 3 m/S 719 mmHg 73%
21:00 +9°C° 0 mm 3 m/S 720 mmHg 74%
22:00 +8°C° 0 mm 3 m/S 720 mmHg 74%
23:00 +8°C° 0 mm 3 m/S 720 mmHg 74%
Mehr zeigen

Wir brauchen deine Erlaubnis

Meteoprog und unser Service Anbieter werden persönliche Daten aufbewahren, so wie Cookies, Geräte Bezeichnung oder ähnliche Technologien von deinem Gerät und Prozess, so wie Persönliche Daten Inhalte und Werbungen, genauso wie social Media und den Verkehr zu analysieren.

  • Aufbewahrung und/oder Zugang zu deiner Geräte Informationen.

    Cookies, Geräte Bezeichnung oder andere Informationen, können aufbewahrt oder Zugang zu deinem Gerät erhalten, für den Grund, der oben angegeben wird.

  • Personalisierte Werbung und Inhalte, Messungen, Einblick in das Publikum und Produkt Entwicklung.

    Werbungen und Inhalte können personalisiert werden, basierend auf ein Profil. Mehr Daten können besser personalisierte Werbungen und Inhalte hinzufügen. Werbung und Inhalte können gezeigt und gemessen werden. Einblicke über das Publikum, welche die Werbung gesehen haben und den Inhalt, können abgeleitet werden. So wie Daten können genutzt werden, um es zu verbessern oder die Benutzer Erfahrung zu verbessern das System und die Software.

Wenn du “Ich stimme zu” klickst, erlaubst du uns, die Cookies zu benutzen die Geräte Bezeichnung, den Web oder ähnliche Technologien zu benutzen. Deine Settings, können in deinem Gerät bei deinem Browser geändert werden.

Für den bestimmten Zweck, berechtigten Interessen beruhen darauf, mehr als auf den Inhalt. Du kannst mehr darüber in unseren Privaten und Cookie Politik lesen.